Weather History for Rogers, AR

Change the Weather History Date:

Friday, September 19, 2014

  Actual Average Record
Temperature  
Mean Temperature 72 °F -  
Max Temperature 81 °F 75 °F 91 °F (2005)
Min Temperature 62 °F 56 °F 46 °F (2006)
Cooling Degree Days 6    
Growing Degree Days 22 (Base 50)    
Moisture  
Dew Point 64 °F    
Average Humidity 79    
Maximum Humidity 94    
Minimum Humidity 58    
Precipitation  
Precipitation 0.00 in - - ()
Sea Level Pressure  
Sea Level Pressure 30.02 in    
Wind  
Wind Speed 7 mph (ESE)    
Max Wind Speed 10 mph    
Max Gust Speed -    
Visibility 8 miles    
Events      
Averages and records for this station are not official NWS values.
T = Trace of Precipitation, MM = Missing Value Source: NWS Daily Summary

Daily Weather History Graph

Daily Weather History Graph

Search for Another Location

Airport:

Trip Planner

Search our weather history database for the weather conditions in past years. The results will help you decide how hot, cold, wet, or windy it might be!

Date:

Astronomy

Sep. 19, 2014 Rise Set
Actual Time 7:01 AM CDT 7:17 PM CDT
Civil Twilight 6:36 AM CDT 7:43 PM CDT
Nautical Twilight 6:06 AM CDT 8:13 PM CDT
Astronomical Twilight 5:35 AM CDT 8:44 PM CDT
Moon 2:53 AM CDT (9/19) 4:41 PM CDT (9/19)
Length of Visible Light 13h 07m
Length of Day
12h 15m
Waning Crescent, 18% of the Moon is Illuminated
Sep 19
Waning Crescent
Sep 24
New
Oct 1
First Quarter
Oct 8
Full
Oct 15
Last Quarter

Hourly Weather History & Observations

Time (CDT) Temp. Heat Index Dew Point Humidity Pressure Visibility Wind Dir Wind Speed Gust Speed Precip Events Conditions
12:57 AM 64.9 °F - 61.0 °F 87% 30.01 in 10.0 mi East 9.2 mph - N/A   Overcast
1:57 AM 64.9 °F - 61.0 °F 87% 30.01 in 10.0 mi East 10.4 mph - N/A   Overcast
2:57 AM 64.9 °F - 61.0 °F 87% 30.01 in 10.0 mi ESE 10.4 mph - N/A   Overcast
3:03 AM 64.4 °F - 60.8 °F 88% 30.04 in 10.0 mi ESE 9.2 mph - N/A   Overcast
3:57 AM 64.9 °F - 61.0 °F 87% 29.99 in 10.0 mi East 6.9 mph - N/A   Mostly Cloudy
4:02 AM 64.4 °F - 60.8 °F 88% 30.03 in 10.0 mi East 5.8 mph - N/A   Scattered Clouds
4:57 AM 64.0 °F - 61.0 °F 90% 30.00 in 10.0 mi East 5.8 mph - N/A   Clear
5:57 AM 64.0 °F - 61.0 °F 90% 30.00 in 10.0 mi ESE 6.9 mph - N/A   Clear
6:20 AM 64.4 °F - 60.8 °F 88% 30.03 in 10.0 mi ESE 9.2 mph - N/A   Partly Cloudy
6:29 AM 64.4 °F - 60.8 °F 88% 30.04 in 9.0 mi ESE 9.2 mph - N/A   Mostly Cloudy
6:57 AM 62.6 °F - 60.8 °F 94% 30.04 in 6.0 mi SE 9.2 mph - N/A   Overcast
6:59 AM 64.0 °F - 61.0 °F 90% 30.01 in 6.0 mi SE 8.1 mph - N/A   Overcast
7:57 AM 64.0 °F - 62.1 °F 93% 30.03 in 4.0 mi ESE 5.8 mph - N/A   Overcast
8:20 AM 64.4 °F - 62.6 °F 94% 30.06 in 4.0 mi East 6.9 mph - N/A   Overcast
8:57 AM 64.9 °F - 62.1 °F 90% 30.04 in 4.0 mi ESE 8.1 mph - N/A   Overcast
9:15 AM 64.4 °F - 62.6 °F 94% 30.07 in 5.0 mi SE 5.8 mph - N/A   Overcast
9:42 AM 66.2 °F - 62.6 °F 88% 30.07 in 7.0 mi South 5.8 mph - N/A   Overcast
9:57 AM 66.9 °F - 63.0 °F 87% 30.05 in 7.0 mi Variable 6.9 mph - N/A   Overcast
10:53 AM 71.6 °F - 64.4 °F 78% 30.08 in 8.0 mi Variable 3.5 mph - N/A   Scattered Clouds
10:57 AM 71.1 °F - 64.0 °F 78% 30.05 in 9.0 mi Calm Calm - N/A   Scattered Clouds
11:57 AM 75.2 °F - 66.2 °F 73% 30.08 in 10.0 mi Calm Calm - N/A   Mostly Cloudy
11:59 AM 75.0 °F - 64.9 °F 71% 30.04 in 10.0 mi Variable 3.5 mph - N/A   Mostly Cloudy
12:39 PM 75.2 °F - 66.2 °F 73% 30.07 in 10.0 mi East 6.9 mph - N/A   Scattered Clouds
12:57 PM 77.0 °F - 66.0 °F 69% 30.03 in 10.0 mi Variable 4.6 mph - N/A   Partly Cloudy
1:57 PM 79.0 °F - 64.9 °F 62% 30.01 in 10.0 mi East 4.6 mph - N/A   Clear
3:57 PM 80.1 °F 81.9 °F 64.9 °F 60% 29.99 in 10.0 mi East 5.8 mph - N/A   Partly Cloudy
4:29 PM 80.6 °F 82.3 °F 64.4 °F 58% 30.01 in 0.5 mi Variable 3.5 mph - N/A   Haze
4:32 PM 80.6 °F 82.7 °F 66.2 °F 61% 30.01 in 0.2 mi Variable 4.6 mph - N/A   Haze
4:40 PM 80.6 °F 82.3 °F 64.4 °F 58% 30.01 in 0.8 mi East 6.9 mph - N/A   Haze
4:43 PM 80.6 °F 82.3 °F 64.4 °F 58% 30.01 in 10.0 mi Variable 5.8 mph - N/A   Clear
4:57 PM 81.0 °F 82.7 °F 64.9 °F 58% 29.97 in 10.0 mi SE 8.1 mph - N/A   Clear
5:57 PM 80.1 °F 82.1 °F 66.0 °F 62% 29.97 in 10.0 mi ESE 5.8 mph - N/A   Clear
6:57 PM 77.0 °F - 66.9 °F 71% 29.98 in 10.0 mi ESE 4.6 mph - N/A   Mostly Cloudy
7:57 PM 75.0 °F - 66.9 °F 76% 29.99 in 10.0 mi SSW 3.5 mph - N/A   Overcast
8:57 PM 73.0 °F - 66.0 °F 79% 30.00 in 10.0 mi Calm Calm - N/A   Clear
9:57 PM 70.0 °F - 66.0 °F 87% 30.01 in 9.0 mi SE 3.5 mph - N/A   Clear
10:57 PM 69.1 °F - 66.0 °F 90% 30.02 in 10.0 mi SSE 4.6 mph - N/A   Clear
11:57 PM 69.1 °F - 64.9 °F 87% 30.01 in 10.0 mi SSE 5.8 mph - N/A   Clear